CDT,Max TemperatureF,Mean TemperatureF,Min TemperatureF,Max Dew PointF,MeanDew PointF,Min DewpointF,Max Humidity, Mean Humidity, Min Humidity, Max Sea Level PressureIn, Mean Sea Level PressureIn, Min Sea Level PressureIn, Max VisibilityMiles, Mean VisibilityMiles, Min VisibilityMiles, Max Wind SpeedMPH, Mean Wind SpeedMPH, Max Gust SpeedMPH,PrecipitationIn, CloudCover, Events, WindDirDegrees
2013-7-1,66,58,51,61,50,45,88,75,67,30.28,30.23,30.12,10,10,10,16,7,22,0.00,0,,66
2013-7-2,60,56,51,48,45,41,82,67,55,30.22,30.18,30.12,10,10,10,9,5,,0.00,0,,50
2013-7-3,64,58,51,54,49,43,82,72,55,30.12,30.05,29.98,10,10,10,9,5,,0.00,0,,56
2013-7-4,64,58,53,57,53,46,88,78,68,29.99,29.93,29.87,10,10,10,9,5,,0.00,0,,61
2013-7-5,87,73,59,64,59,55,94,72,38,29.89,29.84,29.77,10,10,10,24,8,31,0.00,1,,88
2013-7-6,80,72,64,72,65,63,94,78,58,29.89,29.85,29.81,10,8,2,16,7,18,0.00,2,Rain-Thunderstorm,202
2013-7-7,62,56,51,61,54,48,100,95,88,30.03,29.92,29.85,10,5,0,24,16,25,0.00,8,Fog-Rain-Thunderstorm,63
2013-7-8,60,56,51,55,52,50,100,92,82,30.07,30.02,29.95,10,6,0,28,12,31,0.00,6,Fog-Rain-Thunderstorm,61
2013-7-9,68,60,51,63,52,48,100,93,68,30.03,29.88,29.80,10,6,0,14,5,,0.00,7,Fog-Rain,53
2013-7-10,78,69,60,59,55,50,82,62,36,30.03,29.97,29.88,10,10,10,20,11,26,0.00,2,,302
2013-7-11,71,64,57,63,58,54,94,80,64,30.12,30.05,29.98,10,10,7,8,4,,0.00,0,,92
2013-7-12,87,71,55,64,59,54,94,73,43,30.02,29.95,29.88,10,10,10,23,7,29,0.00,1,,90
2013-7-13,77,68,60,68,65,57,94,83,61,30.09,30.01,29.92,10,10,7,13,8,18,0.00,7,Rain-Thunderstorm,185
2013-7-14,69,64,59,64,60,57,94,88,82,30.22,30.14,30.08,10,10,5,7,4,,0.00,5,,51
2013-7-15,69,64,59,64,61,57,94,92,83,30.27,30.23,30.20,10,4,0,12,4,,0.00,6,Fog-Rain,48
2013-7-16,91,74,57,72,64,57,100,78,49,30.21,30.16,30.10,10,8,0,17,7,24,0.00,3,Fog,105
2013-7-17,91,76,62,72,68,61,94,73,49,30.20,30.15,30.08,10,10,10,20,10,24,0.00,1,Thunderstorm,221
2013-7-18,93,78,64,72,66,63,94,78,49,30.10,29.86,29.63,10,7,0,29,7,37,0.00,4,Fog-Thunderstorm,152
2013-7-19,82,76,69,73,63,52,89,64,37,29.83,29.74,29.61,10,10,7,25,14,29,0.00,2,Rain-Thunderstorm,274
2013-7-20,71,65,57,57,53,48,88,69,53,30.03,29.97,29.84,10,10,10,16,10,,0.00,2,,41
2013-7-21,62,58,55,55,53,52,94,84,72,30.03,29.96,29.85,10,10,10,22,15,25,0.00,2,,49
2013-7-22,84,70,55,70,57,52,94,72,48,29.85,29.72,29.61,10,10,10,24,12,29,0.00,5,Rain-Thunderstorm,325
2013-7-23,69,63,57,55,53,48,82,69,46,30.04,29.98,29.83,10,10,10,17,8,16,0.00,0,,22
2013-7-24,75,64,53,57,54,50,94,69,47,30.07,30.01,29.93,10,10,10,15,6,21,0.00,2,,214
2013-7-25,82,68,55,64,58,54,100,76,42,29.94,29.91,29.85,10,9,0,22,7,28,0.00,4,Fog-Rain-Thunderstorm,229
2013-7-26,59,56,53,57,53,46,100,89,72,30.10,29.98,29.87,10,8,1,25,8,30,0.00,8,Rain-Thunderstorm,25
2013-7-27,57,54,51,52,49,45,94,81,72,30.08,29.96,29.89,10,10,4,18,11,23,0.00,7,Rain,333
2013-7-28,69,61,53,55,52,48,88,74,49,30.05,29.97,29.93,10,10,10,13,9,18,0.00,6,,336
2013-7-29,75,63,51,63,54,48,94,74,41,30.12,30.09,30.05,10,10,10,9,4,,0.00,1,,202
2013-7-30,71,65,59,63,59,55,88,81,73,30.13,30.08,30.03,10,10,10,14,5,,0.00,5,Rain,210
2013-7-31,78,70,62,64,57,50,94,67,39,30.04,29.98,29.93,10,10,10,23,11,28,0.00,2,Rain,248